Temperature
12 13 13 14 11 9 10 11 11 13 14 16 17 17 17 17 18 18 19 19 19 18 18 18 17 17 17 17 17 17 17 17 17 17 17 17 17 17 17 17 17 16 16 16 16 16 16 16 16
12 12 13 12 9 9 10 10 11 13 15 15 16 17 17 17 18 18 19 19 19 18 18 17 17 17 17 17 17 17 17 17 17 17 17 17 17 17 16 16 16 16 16 16 16 16 16 16 16
11 12 12 9 9 9 11 11 11 13 14 15 15 16 16 17 17 17 18 18 18 18 17 17 17 17 17 17 17 17 17 17 16 16 17 16 16 16 16 16 16 16 16 16 16 16 16 16 16
11 11 11 8 9 9 10 11 11 12 14 14 14 15 16 16 16 17 17 18 18 17 17 17 17 17 17 16 17 17 17 16 16 16 16 16 16 16 16 16 16 16 16 16 16 16 16 16 16
11 10 8 8 8 9 9 11 11 12 12 13 13 13 15 16 16 17 17 17 17 17 17 17 16 17 16 16 16 16 16 16 16 16 16 16 16 16 16 16 16 16 16 16 16 16 16 16 15
10 8 7 7 8 9 9 11 11 11 11 12 13 13 15 16 16 16 16 16 16 16 16 16 16 16 16 16 16 16 16 16 16 16 16 16 16 16 16 16 16 16 16 16 16 16 16 16 15
8 6 7 7 7 8 10 11 11 10 11 12 13 12 14 15 15 15 15 16 16 16 16 16 16 16 16 16 16 16 16 16 16 16 16 16 16 16 16 16 16 16 16 16 16 16 16 15 15
9 6 7 6 7 8 10 11 11 11 11 12 13 12 13 14 14 15 15 15 15 15 15 15 15 15 15 15 16 16 16 16 16 16 16 16 16 15 15 15 15 16 16 16 16 15 15 15 15
8 6 6 6 7 8 9 10 10 11 11 12 12 13 13 14 14 14 14 14 15 15 15 15 15 15 15 15 15 15 15 15 15 15 15 15 15 15 15 15 15 15 15 15 15 15 15 15 15
7 5 6 7 8 8 9 9 9 10 10 10 11 12 13 13 13 13 14 14 14 15 15 15 15 15 15 15 15 15 15 15 15 15 15 15 15 15 15 15 15 15 15 15 15 15 15 15 15
6 5 6 7 8 9 8 9 9 9 8 10 11 12 12 13 13 13 13 14 14 14 14 15 15 15 15 15 15 15 15 15 15 15 15 15 15 15 15 15 15 15 15 15 15 15 15 15 15
6 6 7 8 8 8 8 8 9 9 9 11 11 11 11 12 12 12 13 13 13 14 14 14 14 14 14 14 14 15 14 14 15 15 15 14 15 15 15 15 15 15 15 15 15 15 15 15 15
6 6 7 8 8 8 8 8 8 9 10 10 11 11 11 11 12 12 12 13 13 13 13 14 14 14 14 14 14 14 14 14 14 14 14 14 14 14 14 15 15 15 15 15 15 15 14 14 14
6 7 7 7 8 8 8 8 8 9 10 10 10 10 11 11 11 12 12 12 13 13 13 13 14 14 14 14 14 14 14 14 14 14 14 14 14 14 14 14 14 14 14 14 14 14 14 14 14
7 6 6 7 7 8 8 7 7 9 10 10 10 10 10 11 11 11 12 12 12 13 13 13 13 13 13 14 14 14 14 14 14 14 14 14 14 14 14 14 14 14 14 14 14 14 14 14 14
6 6 6 7 7 8 7 7 8 9 9 9 9 9 10 10 11 11 12 12 12 12 12 13 13 13 13 13 13 13 13 13 14 14 14 14 14 14 14 14 14 14 14 14 14 14 14 14 14
6 5 6 7 7 7 7 7 8 9 8 8 9 9 9 10 10 11 11 12 12 12 12 12 12 13 13 13 13 13 13 13 13 13 13 13 13 14 14 14 14 14 14 14 14 14 13 13 13
6 6 6 6 7 7 7 6 7 8 8 8 8 9 9 9 9 10 11 11 11 11 12 12 12 12 12 12 12 12 12 12 13 13 13 13 13 13 13 13 13 13 13 13 13 13 13 13 13
6 6 6 7 8 7 7 7 7 8 7 7 7 8 8 8 9 9 10 10 11 11 11 11 11 12 12 12 12 12 12 12 12 12 12 13 13 13 13 13 13 13 13 13 13 13 12 12 12
6 6 6 7 8 8 7 7 7 7 7 7 7 7 8 8 8 9 9 10 10 10 11 11 11 11 11 11 11 11 11 12 12 12 12 12 13 13 12 13 13 13 13 13 12 12 12 12 11
6 6 6 7 7 7 7 7 7 7 7 7 7 7 7 7 8 8 9 9 9 10 10 10 10 11 11 11 11 11 11 11 11 12 12 12 12 12 12 12 12 12 12 12 12 12 12 11 11
7 7 7 7 7 6 7 6 7 7 7 7 7 7 7 7 8 8 8 9 9 9 9 10 10 10 10 11 11 11 11 11 11 11 11 11 11 12 12 12 12 12 12 12 11 11 11 11 11
7 7 7 7 7 6 6 6 6 6 6 6 6 6 7 7 7 7 8 8 8 9 9 10 10 10 10 10 10 10 10 10 10 10 11 11 11 11 11 11 11 11 11 11 11 11 11 11 11
7 7 7 6 6 6 6 6 6 6 6 6 6 6 6 6 7 7 7 8 8 8 9 9 9 9 9 10 10 9 10 10 10 10 10 10 10 11 11 11 11 11 11 11 11 11 11 11 10
7 6 6 6 6 6 6 6 6 7 6 6 6 6 6 6 6 7 7 7 7 8 8 8 9 9 9 9 9 9 9 9 9 10 10 10 10 10 10 10 10 10 10 10 10 10 10 10 10
6 6 6 7 6 6 6 6 6 6 6 6 6 6 6 6 6 6 6 7 7 7 7 8 8 8 9 9 9 9 9 9 9 9 9 9 9 10 10 10 10 10 10 10 10 10 10 10 9
7 6 6 5 5 5 6 6 6 6 6 5 5 5 5 5 6 6 6 6 6 7 7 7 8 8 8 8 8 8 8 8 8 9 9 9 9 9 9 9 9 9 9 9 9 9 9 9 9
7 6 5 5 6 6 6 6 6 6 5 5 5 5 5 5 5 6 6 6 6 6 7 7 7 7 7 7 7 7 7 8 8 8 8 8 8 8 8 8 8 8 9 9 8 8 8 8 8
6 6 5 4 5 6 6 6 6 6 5 5 5 5 5 5 5 5 5 6 6 6 6 6 7 7 7 7 7 7 7 7 7 8 8 8 8 8 8 8 8 8 8 8 8 8 8 8 7
6 6 5 6 5 4 5 6 6 5 5 5 5 5 5 5 5 5 5 5 5 6 6 6 6 6 7 7 7 7 7 7 7 7 7 7 7 7 7 7 7 7 7 7 7 7 7 7 7
Wind_Speed
7 5 3 4 4 1 6 6 4 3 4 3 2 3 4 5 4 4 3 1 2 6 12 16 19 19 19 19 18 18 18 18 18 19 19 19 19 19 18 18 18 17 17 17 17 17 17 17 16
4 3 5 5 4 5 7 6 7 6 3 3 3 2 2 4 3 3 3 1 2 6 11 14 17 18 19 18 18 18 18 18 18 19 19 19 19 19 18 18 17 17 17 17 16 17 16 15 15
3 4 4 4 5 7 7 5 6 5 4 2 3 2 2 4 4 3 3 1 3 5 9 12 16 18 18 18 18 18 18 18 18 18 18 18 19 19 18 17 17 16 16 16 16 16 15 14 13
3 4 4 2 9 7 5 2 1 3 4 2 1 5 4 3 3 4 3 2 4 4 7 12 16 17 18 18 18 18 18 19 18 18 18 18 18 18 18 17 17 16 16 16 16 15 14 13 12
4 4 2 4 7 5 4 3 2 1 3 3 3 4 5 3 4 4 1 2 4 4 5 9 14 16 17 18 18 18 18 18 19 18 18 18 18 18 18 17 17 16 16 15 15 14 13 12 11
4 4 3 7 7 4 4 3 2 2 3 4 2 3 5 2 5 5 3 1 3 4 4 7 12 14 15 16 17 17 18 18 18 18 18 18 18 18 18 17 17 16 16 15 14 13 12 11 11
4 4 4 5 4 4 3 2 2 3 4 4 2 3 5 4 4 4 3 0 2 3 3 4 7 11 14 15 16 16 16 16 17 18 18 17 17 18 17 17 16 16 15 15 14 13 12 11 10
4 4 3 4 4 5 2 1 2 3 6 4 3 4 5 4 4 4 3 1 1 2 2 2 3 6 9 12 14 15 15 15 16 16 17 17 17 17 17 16 16 15 15 14 13 12 11 9 9
4 2 5 5 6 4 1 1 3 3 4 4 4 5 6 5 4 3 2 1 1 3 2 2 2 3 5 8 12 13 13 14 14 14 15 16 14 14 15 15 15 15 14 13 12 11 10 8 8
4 4 7 5 4 3 2 3 4 4 5 5 6 6 6 4 3 3 3 3 4 5 4 3 3 3 4 7 8 9 10 11 11 11 12 12 12 12 13 14 15 14 12 11 10 10 8 6 6
5 6 4 5 5 5 5 6 4 5 8 8 7 8 7 5 5 5 5 5 6 5 5 5 4 4 4 3 5 5 6 8 9 11 11 10 10 10 10 10 10 11 11 9 8 7 6 6 5
4 6 6 5 4 5 6 5 5 8 11 9 9 8 7 8 8 7 6 6 5 5 7 6 6 5 4 4 4 5 5 5 6 9 11 10 6 6 7 6 8 8 8 6 6 5 5 5 5
5 5 6 8 9 9 8 10 8 11 13 10 9 8 9 9 8 7 7 5 5 6 7 7 7 7 5 4 4 5 5 5 7 8 10 11 7 6 6 6 7 7 7 7 5 4 4 3 4
4 5 7 8 9 6 8 10 7 11 8 7 8 8 7 8 7 6 5 5 5 5 7 7 7 7 6 5 4 5 5 6 6 8 10 12 9 7 6 6 6 7 8 7 6 5 4 3 3
2 4 7 6 6 4 3 8 9 10 6 7 8 7 7 7 5 6 6 5 5 5 5 6 7 7 7 6 5 4 5 6 5 6 9 11 11 10 7 6 6 7 9 8 6 4 3 2 2
1 2 5 4 3 3 3 9 7 5 4 7 7 6 5 5 5 5 4 3 4 4 4 5 6 6 6 5 4 3 4 4 4 6 8 9 11 11 8 7 6 8 8 6 5 4 3 3 3
0 2 5 5 3 2 4 8 8 5 4 7 7 5 4 4 4 4 3 2 2 3 3 3 3 5 6 5 4 3 3 3 4 5 6 8 10 11 9 7 6 8 6 5 6 4 3 3 4
3 3 4 5 3 2 4 8 9 6 3 5 5 4 3 3 4 3 3 2 2 2 2 2 3 3 4 4 3 3 2 2 3 3 5 7 8 9 8 6 6 7 6 5 5 5 4 3 3
3 4 6 6 4 2 5 8 9 6 3 3 3 2 2 2 2 2 2 2 1 2 2 2 3 3 4 3 3 3 3 2 2 2 4 5 6 7 7 6 7 7 6 7 6 4 4 3 2
5 6 7 6 3 2 4 7 6 4 3 2 2 2 2 2 4 4 4 3 2 2 2 2 2 3 4 3 3 2 2 2 2 2 2 3 3 5 5 6 6 7 6 6 6 5 4 3 3
6 6 6 5 4 2 3 6 4 3 2 3 2 1 2 2 3 3 4 4 4 3 2 2 2 2 3 4 4 3 2 1 1 1 1 2 2 3 3 5 6 6 6 6 7 7 6 5 5
5 5 6 5 2 2 2 3 4 4 4 4 4 3 3 3 3 4 5 5 5 3 2 3 3 3 3 3 4 4 3 2 1 1 1 1 1 2 2 4 5 6 5 6 7 7 6 6 5
4 3 3 3 2 2 2 1 5 3 4 4 4 4 4 3 4 5 5 4 5 5 4 3 3 3 3 3 3 3 3 2 1 1 1 1 2 2 2 3 4 5 5 6 6 6 6 6 6
2 1 1 1 1 1 2 1 4 2 3 3 3 4 4 5 5 5 5 5 6 6 5 5 5 4 3 3 2 2 3 3 2 1 2 2 2 2 3 3 4 5 5 6 6 7 7 7 7
1 2 2 3 2 2 1 1 4 3 2 0 1 3 4 5 5 5 6 7 6 6 5 5 5 4 3 3 3 2 1 2 2 1 1 1 1 1 2 3 4 4 5 5 5 6 7 7 7
1 2 3 2 2 3 2 2 4 3 2 2 2 2 4 5 5 5 5 5 6 6 6 6 5 5 5 4 3 3 2 1 1 1 1 1 1 1 2 3 3 5 5 6 6 6 7 6 8
1 1 2 3 0 1 3 4 4 2 2 3 3 3 3 4 4 4 5 6 6 6 6 5 5 5 5 4 4 4 3 2 1 1 1 1 1 1 2 2 3 3 3 4 5 6 7 6 7
1 2 3 2 1 1 4 3 3 2 1 0 1 1 2 3 3 4 5 5 5 5 5 5 4 4 4 3 3 2 2 2 1 1 1 1 2 2 2 3 3 3 3 3 4 4 6 6 6
1 2 2 2 2 2 2 4 3 4 3 3 2 1 1 2 2 3 4 4 5 5 6 5 5 5 4 3 2 2 2 2 2 2 2 2 2 2 3 3 3 3 4 4 4 4 4 6 6
2 2 3 2 1 2 2 4 2 3 3 3 3 1 0 1 2 3 3 4 4 5 5 5 5 5 5 4 4 4 4 4 3 3 3 2 3 3 3 3 3 3 4 4 4 5 5 5 6
Wind_Direction
358 2 46 57 66 89 233 232 218 223 218 227 231 203 199 203 192 225 315 125 138 158 169 173 169 166 164 162 160 156 154 152 150 150 149 148 147 146 144 141 139 136 133 129 127 125 121 117 114
2 19 54 70 130 209 246 228 218 223 237 324 314 264 247 258 270 298 336 328 142 158 165 172 172 169 167 165 164 161 159 158 156 154 154 152 150 149 146 144 142 139 135 132 130 127 123 121 119
28 46 89 111 182 202 219 215 219 255 291 335 333 322 261 272 311 303 296 236 120 151 164 172 174 174 172 168 166 166 164 163 161 159 158 156 154 152 149 146 143 140 137 135 133 131 129 127 124
65 52 64 157 224 222 213 200 213 312 326 349 347 307 294 288 309 295 291 146 127 145 161 174 175 178 176 172 169 169 169 167 166 165 163 160 158 155 152 147 144 142 140 140 139 137 135 132 128
59 86 130 232 238 240 244 261 269 293 305 331 343 291 284 311 334 338 339 140 144 150 158 176 178 178 178 177 175 173 172 171 171 170 167 165 163 159 155 150 148 147 146 146 145 143 141 137 134
67 84 162 230 238 253 259 263 281 280 281 302 309 276 267 312 1 344 346 130 155 154 158 175 181 182 178 176 177 179 177 175 175 174 172 169 166 162 157 154 154 154 154 154 152 150 148 144 141
116 130 202 227 250 255 243 240 212 246 267 259 240 261 280 311 337 336 337 85 149 156 149 168 180 187 185 182 179 181 180 177 177 176 174 171 167 163 161 160 161 161 161 160 158 156 153 151 148
123 126 205 230 226 244 256 263 233 225 252 253 212 223 260 287 318 344 358 53 155 157 161 164 171 183 187 186 184 182 183 182 177 175 173 169 167 165 164 165 166 167 167 166 164 162 160 157 155
98 119 222 220 209 232 280 308 302 284 252 266 252 240 260 295 320 350 349 321 209 189 180 178 158 164 178 184 183 180 180 180 176 172 169 167 165 165 165 167 169 171 171 170 171 170 167 160 161
123 195 226 218 211 232 274 266 285 304 281 268 273 277 284 288 282 264 258 251 230 221 201 191 173 174 172 185 177 174 175 174 174 173 169 167 165 165 165 170 171 172 172 173 175 175 168 156 159
170 208 228 245 247 255 271 274 257 251 261 242 249 272 287 277 266 252 240 235 229 220 213 201 185 183 174 174 169 165 163 164 167 171 169 164 162 161 160 166 170 171 171 172 176 171 165 163 168
200 234 232 254 252 251 254 259 256 232 242 249 252 263 274 273 261 250 245 247 236 221 215 202 191 187 176 168 171 163 161 162 165 169 168 166 166 163 163 166 169 169 172 171 171 169 172 176 183
223 253 247 252 262 252 253 251 256 256 256 261 265 264 257 256 254 251 246 250 248 225 214 202 193 191 181 169 173 168 169 172 173 173 177 174 173 173 169 172 173 175 176 177 175 174 179 186 190
233 251 269 266 258 252 249 260 249 262 263 261 262 262 257 252 252 257 253 244 239 228 217 200 193 189 182 180 181 176 172 175 177 180 181 180 180 178 176 176 179 184 185 185 184 183 185 195 199
255 287 293 261 245 243 237 276 242 257 272 268 266 261 262 259 259 253 248 242 237 228 215 198 189 184 183 183 185 178 170 173 182 186 184 185 184 181 180 184 187 191 188 184 182 179 182 195 215
287 292 291 280 235 221 185 269 268 265 266 270 268 265 263 267 272 270 259 253 243 217 210 199 193 181 178 181 178 178 167 166 179 182 179 185 185 181 180 187 191 187 183 181 182 184 191 207 217
274 272 272 295 250 201 202 265 289 292 268 271 270 264 263 277 293 294 278 258 239 211 207 197 181 179 180 176 168 163 163 167 172 181 178 186 187 184 181 185 187 182 181 185 192 193 192 207 220
238 253 269 275 281 203 240 270 293 305 278 275 279 274 271 274 282 295 293 267 226 166 166 174 164 164 159 154 146 145 157 180 163 179 181 183 186 185 181 180 184 182 186 191 194 197 201 206 209
250 257 276 276 271 248 262 281 295 308 308 293 294 288 285 272 307 338 332 328 68 95 120 149 159 156 144 146 150 159 179 185 177 179 172 178 181 183 183 187 186 187 193 196 195 195 201 205 167
242 265 273 286 274 240 286 296 300 306 296 283 282 312 308 359 13 13 6 29 71 94 108 123 157 155 151 152 148 147 151 166 177 191 164 161 176 184 189 191 191 190 193 196 198 190 193 200 180
247 238 251 265 308 297 307 315 320 335 354 13 26 21 15 39 34 28 32 56 66 57 72 105 130 136 135 140 131 125 119 111 147 183 186 172 168 182 190 200 194 193 193 201 205 199 196 205 205
257 241 245 255 291 312 350 308 320 343 353 8 8 12 17 21 44 53 52 52 53 47 57 88 86 91 104 117 128 143 155 166 204 209 209 184 158 186 207 210 198 197 198 203 208 206 210 203 210
237 257 244 240 217 304 325 255 304 350 350 354 10 6 9 26 46 46 43 47 44 38 38 56 65 67 83 101 129 145 154 164 184 180 193 219 229 224 229 229 210 207 208 211 210 210 211 211 214
224 329 349 44 106 305 288 220 308 317 308 338 14 13 15 32 46 45 36 44 49 36 34 41 57 52 65 85 96 130 158 164 167 185 204 221 227 218 219 224 218 213 213 215 218 217 216 218 221
58 73 23 5 6 272 301 194 271 291 312 39 33 12 21 33 41 40 38 40 43 36 30 37 51 55 65 82 82 89 144 176 180 194 213 236 255 262 257 238 224 220 220 220 218 222 224 224 226
230 139 154 208 245 294 346 261 275 306 342 37 53 45 38 33 37 39 36 34 35 33 31 35 39 49 55 61 62 60 62 80 87 48 304 286 279 266 258 248 235 227 223 223 221 229 231 228 230
133 156 167 134 96 324 304 300 307 11 40 52 50 48 34 36 38 39 34 29 30 28 23 25 32 35 37 38 44 44 38 32 25 23 359 313 303 285 269 264 266 254 235 233 231 234 236 235 236
118 136 95 114 118 315 310 288 263 264 261 56 51 30 16 29 32 33 34 30 29 26 22 21 26 28 23 28 33 28 17 12 353 11 13 328 313 314 292 276 268 267 251 237 235 242 241 237 240
39 69 93 107 137 153 285 282 228 215 211 195 206 186 58 35 32 32 28 25 23 23 23 22 23 26 26 29 26 23 8 2 359 358 340 323 311 299 283 268 263 265 257 242 235 241 248 244 244
207 179 151 147 235 158 185 271 304 219 210 186 187 177 98 68 43 32 27 25 29 26 19 17 16 24 22 26 29 29 23 19 14 358 338 318 299 284 270 267 266 277 275 259 244 245 248 249 247
Height
1498 1500 1503 1506 1510 1517 1516 1510 1505 1503 1501 1499 1499 1499 1499 1500 1501 1503 1497 1493 1493 1494 1497 1499 1502 1504 1507 1509 1512 1514 1517 1519 1521 1523 1525 1527 1529 1530 1532 1534 1535 1537 1538 1539 1541 1542 1543 1544 1545
1498 1500 1504 1505 1513 1520 1515 1506 1503 1500 1498 1497 1497 1497 1497 1496 1496 1496 1493 1493 1493 1495 1497 1499 1502 1504 1507 1509 1512 1514 1517 1519 1521 1523 1525 1527 1529 1531 1532 1534 1536 1537 1539 1540 1541 1543 1544 1545 1546
1498 1500 1503 1506 1512 1512 1506 1501 1500 1497 1497 1497 1497 1496 1496 1495 1495 1494 1494 1493 1494 1495 1497 1499 1502 1504 1507 1509 1512 1514 1516 1519 1521 1523 1525 1527 1529 1531 1533 1535 1536 1538 1539 1540 1542 1543 1545 1546 1547
1498 1501 1503 1508 1506 1504 1500 1498 1497 1497 1496 1496 1497 1496 1495 1496 1494 1494 1493 1493 1494 1495 1496 1499 1501 1504 1507 1509 1511 1514 1516 1519 1521 1523 1525 1527 1529 1531 1533 1535 1536 1538 1540 1541 1542 1544 1545 1546 1548
1498 1500 1505 1507 1504 1500 1498 1496 1497 1497 1496 1496 1496 1495 1493 1494 1493 1492 1492 1493 1493 1494 1496 1498 1501 1503 1506 1508 1511 1513 1516 1518 1521 1523 1525 1527 1529 1531 1533 1535 1537 1538 1540 1541 1543 1544 1546 1547 1548
1498 1500 1508 1507 1502 1499 1496 1496 1496 1495 1495 1495 1495 1494 1492 1492 1491 1491 1491 1492 1493 1494 1495 1497 1500 1503 1505 1508 1510 1513 1515 1517 1520 1522 1525 1527 1529 1531 1533 1535 1536 1538 1540 1541 1543 1544 1546 1547 1548
1498 1502 1505 1504 1502 1499 1495 1494 1494 1494 1494 1494 1494 1493 1491 1491 1491 1490 1490 1491 1492 1493 1495 1497 1499 1501 1504 1506 1509 1511 1514 1516 1519 1521 1524 1526 1528 1530 1532 1534 1536 1538 1540 1541 1543 1544 1546 1547 1549
1497 1502 1503 1503 1501 1497 1494 1493 1493 1493 1492 1492 1492 1491 1489 1490 1489 1489 1489 1490 1491 1492 1494 1495 1497 1499 1502 1505 1507 1510 1512 1515 1517 1520 1522 1525 1527 1529 1532 1534 1536 1538 1539 1541 1543 1544 1546 1547 1548
1497 1504 1503 1501 1498 1494 1492 1492 1492 1491 1490 1490 1489 1489 1489 1488 1488 1488 1488 1488 1489 1491 1492 1494 1495 1497 1500 1503 1505 1508 1510 1513 1516 1518 1521 1523 1526 1528 1530 1533 1535 1537 1539 1541 1542 1544 1545 1547 1548
1497 1501 1498 1495 1494 1492 1492 1492 1491 1490 1488 1487 1486 1486 1486 1486 1486 1485 1485 1486 1486 1488 1489 1491 1493 1495 1497 1500 1503 1505 1508 1511 1513 1516 1519 1522 1524 1527 1529 1531 1534 1535 1537 1539 1541 1543 1544 1545 1547
1494 1496 1493 1492 1491 1491 1490 1490 1489 1488 1486 1484 1483 1482 1483 1483 1482 1482 1482 1483 1483 1485 1486 1488 1490 1493 1495 1497 1500 1503 1505 1508 1511 1514 1517 1519 1522 1525 1527 1529 1532 1534 1536 1538 1540 1541 1543 1544 1545
1493 1492 1491 1489 1489 1489 1488 1487 1486 1484 1481 1480 1480 1479 1479 1479 1479 1479 1479 1479 1480 1481 1483 1485 1487 1489 1492 1494 1497 1500 1502 1505 1508 1511 1514 1517 1519 1522 1524 1527 1529 1532 1534 1536 1538 1539 1541 1543 1544
1491 1489 1488 1487 1486 1486 1485 1484 1483 1478 1476 1476 1476 1476 1475 1475 1475 1476 1476 1476 1477 1478 1479 1481 1484 1486 1489 1491 1493 1497 1500 1503 1505 1508 1511 1514 1517 1519 1522 1524 1527 1529 1532 1534 1535 1537 1539 1540 1542
1487 1487 1485 1483 1482 1481 1481 1479 1479 1472 1473 1473 1472 1471 1471 1471 1471 1472 1472 1472 1473 1474 1476 1477 1480 1483 1486 1488 1491 1493 1496 1500 1503 1506 1508 1511 1514 1517 1519 1522 1524 1527 1529 1531 1533 1535 1536 1538 1539
1486 1486 1483 1480 1479 1478 1479 1476 1473 1470 1470 1469 1468 1468 1467 1467 1467 1468 1468 1468 1469 1471 1473 1474 1477 1479 1482 1485 1487 1490 1493 1496 1499 1502 1505 1508 1511 1514 1517 1519 1521 1524 1526 1528 1530 1532 1534 1535 1536
1485 1486 1485 1478 1476 1476 1480 1476 1469 1468 1467 1466 1465 1464 1463 1463 1464 1464 1464 1464 1466 1467 1469 1471 1473 1475 1478 1481 1484 1487 1490 1493 1496 1499 1502 1505 1508 1510 1513 1516 1518 1521 1523 1525 1526 1528 1529 1531 1532
1486 1487 1484 1479 1475 1475 1477 1474 1467 1465 1464 1463 1462 1461 1461 1460 1461 1461 1461 1462 1463 1464 1465 1467 1470 1472 1475 1478 1481 1484 1486 1489 1493 1495 1498 1501 1504 1506 1509 1512 1514 1517 1519 1521 1523 1524 1525 1526 1528
1486 1485 1482 1480 1475 1474 1475 1471 1466 1464 1463 1461 1460 1458 1458 1458 1458 1459 1459 1459 1459 1461 1463 1465 1467 1470 1472 1475 1478 1481 1483 1486 1489 1491 1494 1497 1500 1502 1505 1508 1510 1513 1515 1516 1518 1520 1521 1522 1524
1482 1482 1481 1477 1473 1474 1472 1469 1465 1462 1461 1459 1458 1457 1456 1456 1457 1456 1456 1455 1456 1458 1460 1463 1465 1467 1469 1472 1474 1477 1480 1482 1485 1488 1490 1493 1496 1498 1501 1503 1506 1508 1510 1512 1514 1515 1517 1518 1519
1481 1481 1479 1475 1471 1472 1470 1468 1463 1461 1460 1458 1457 1456 1455 1454 1454 1454 1454 1454 1454 1456 1458 1461 1463 1465 1467 1469 1472 1475 1478 1480 1482 1484 1486 1489 1491 1494 1496 1498 1501 1503 1505 1507 1509 1510 1511 1513 1514
1478 1478 1477 1475 1472 1470 1470 1467 1463 1460 1458 1457 1456 1456 1455 1454 1453 1453 1453 1453 1454 1455 1457 1459 1461 1463 1465 1467 1469 1472 1475 1476 1478 1480 1482 1484 1487 1489 1491 1494 1496 1498 1500 1502 1503 1505 1506 1507 1509
1476 1473 1472 1472 1474 1475 1474 1473 1464 1462 1459 1457 1456 1455 1455 1454 1453 1453 1453 1453 1453 1455 1457 1458 1459 1460 1462 1464 1466 1468 1470 1472 1474 1477 1478 1480 1482 1485 1487 1489 1491 1493 1495 1496 1498 1500 1501 1502 1503
1472 1470 1471 1471 1473 1476 1474 1474 1468 1464 1461 1458 1457 1456 1455 1454 1454 1453 1453 1453 1454 1454 1455 1456 1457 1458 1459 1462 1464 1466 1467 1469 1472 1473 1475 1476 1478 1480 1482 1484 1486 1487 1489 1491 1493 1494 1495 1496 1497
1470 1471 1471 1473 1475 1476 1474 1474 1470 1466 1462 1460 1459 1457 1456 1455 1455 1454 1454 1453 1453 1454 1455 1456 1456 1457 1458 1460 1462 1463 1464 1466 1468 1470 1471 1473 1474 1475 1477 1479 1480 1482 1483 1485 1487 1489 1490 1491 1492
1471 1475 1479 1478 1480 1477 1473 1473 1470 1463 1461 1460 1460 1459 1457 1456 1456 1455 1454 1453 1453 1454 1455 1455 1455 1456 1457 1458 1460 1461 1462 1463 1464 1466 1467 1468 1469 1470 1472 1474 1475 1477 1478 1480 1481 1482 1483 1484 1485
1472 1475 1481 1480 1480 1479 1475 1473 1469 1463 1462 1461 1461 1460 1459 1458 1457 1456 1455 1455 1454 1454 1454 1454 1454 1454 1455 1456 1457 1458 1459 1460 1461 1462 1463 1464 1465 1466 1468 1469 1470 1471 1472 1474 1475 1476 1477 1477 1479
1472 1475 1476 1482 1483 1482 1477 1474 1467 1464 1463 1462 1462 1461 1461 1460 1459 1459 1458 1457 1456 1455 1455 1454 1454 1454 1454 1455 1455 1456 1457 1458 1458 1459 1460 1461 1461 1462 1464 1465 1465 1466 1466 1467 1468 1469 1470 1471 1472
1472 1474 1479 1481 1480 1478 1476 1475 1471 1465 1465 1464 1464 1463 1462 1462 1461 1460 1459 1458 1457 1457 1456 1455 1454 1454 1453 1453 1454 1455 1455 1455 1456 1456 1456 1457 1458 1458 1459 1460 1461 1461 1461 1461 1462 1463 1463 1464 1465
1474 1475 1478 1482 1481 1482 1479 1474 1464 1463 1463 1464 1463 1463 1463 1462 1462 1461 1461 1460 1459 1458 1456 1455 1454 1453 1452 1452 1453 1453 1454 1454 1454 1454 1453 1454 1454 1455 1455 1455 1456 1456 1456 1456 1456 1457 1457 1457 1457
1473 1474 1477 1480 1481 1485 1484 1476 1462 1462 1461 1462 1463 1463 1463 1463 1463 1462 1462 1461 1459 1458 1457 1456 1454 1453 1452 1452 1452 1452 1451 1451 1451 1450 1450 1450 1450 1450 1450 1451 1451 1451 1451 1451 1451 1452 1452 1452 1452